TimeEST,TemperatureF,Dew PointF,Humidity,Sea Level PressureIn,VisibilityMPH,Wind Direction,Wind SpeedMPH,Gust SpeedMPH,PrecipitationIn,Events,Conditions,WindDirDegrees,DateUTC
12:15 AM,17.6,12.2,79,30.16,10.0,SSW,5.8,-,N/A,,Overcast,210,2007-01-26 05:15:00
12:35 AM,19.4,12.2,74,30.15,10.0,SW,3.5,-,N/A,Snow,Light Snow,220,2007-01-26 05:35:00
12:55 AM,19.4,12.2,74,30.14,7.0,SW,3.5,-,N/A,Snow,Light Snow,220,2007-01-26 05:55:00
1:15 AM,19.4,14.0,80,30.13,10.0,SSW,4.6,-,N/A,,Overcast,210,2007-01-26 06:15:00
1:35 AM,19.4,14.0,80,30.12,10.0,SW,5.8,-,N/A,,Overcast,220,2007-01-26 06:35:00
1:55 AM,19.4,14.0,80,30.11,10.0,SSW,6.9,-,N/A,,Overcast,210,2007-01-26 06:55:00
2:15 AM,19.4,14.0,80,30.10,10.0,SSW,6.9,-,N/A,,Overcast,210,2007-01-26 07:15:00
2:35 AM,19.4,14.0,80,30.09,10.0,SSW,8.1,-,N/A,,Overcast,210,2007-01-26 07:35:00
2:55 AM,19.4,12.2,74,30.08,10.0,SW,5.8,-,N/A,,Overcast,220,2007-01-26 07:55:00
3:17 AM,19.4,14.0,80,30.07,10.0,SW,5.8,-,N/A,,Overcast,220,2007-01-26 08:17:00
3:35 AM,19.4,14.0,80,30.07,10.0,SSW,6.9,-,N/A,,Overcast,210,2007-01-26 08:35:00
3:55 AM,19.4,12.2,74,30.07,10.0,SSW,6.9,-,N/A,,Overcast,210,2007-01-26 08:55:00
4:15 AM,19.4,14.0,80,30.06,10.0,SSW,8.1,-,N/A,,Overcast,210,2007-01-26 09:15:00
4:35 AM,19.4,12.2,74,30.05,10.0,SSW,9.2,-,N/A,,Overcast,200,2007-01-26 09:35:00
4:55 AM,19.4,14.0,80,30.05,10.0,SSW,9.2,-,N/A,,Overcast,210,2007-01-26 09:55:00
5:15 AM,19.4,14.0,80,30.04,10.0,SW,8.1,16.1,N/A,,Overcast,220,2007-01-26 10:15:00
5:35 AM,19.4,14.0,80,30.03,10.0,SW,8.1,-,N/A,,Overcast,220,2007-01-26 10:35:00
5:55 AM,19.4,14.0,80,30.02,10.0,SW,9.2,-,N/A,,Overcast,220,2007-01-26 10:55:00
6:15 AM,19.4,15.8,86,30.00,10.0,SSW,10.4,-,N/A,,Overcast,210,2007-01-26 11:15:00
6:35 AM,19.4,15.8,86,30.00,10.0,SSW,11.5,-,N/A,,Overcast,210,2007-01-26 11:35:00
6:55 AM,19.4,15.8,86,30.00,10.0,SSW,6.9,-,N/A,,Overcast,210,2007-01-26 11:55:00
7:15 AM,21.2,15.8,80,30.00,10.0,SSW,10.4,-,N/A,,Overcast,200,2007-01-26 12:15:00
7:35 AM,21.2,15.8,80,29.98,10.0,SSW,9.2,-,N/A,,Overcast,210,2007-01-26 12:35:00
7:55 AM,21.2,15.8,80,29.98,10.0,SSW,10.4,-,N/A,,Overcast,210,2007-01-26 12:55:00
8:15 AM,21.2,15.8,80,29.96,10.0,SSW,11.5,-,N/A,,Overcast,210,2007-01-26 13:15:00
8:35 AM,21.2,15.8,80,29.95,10.0,SSW,11.5,-,N/A,,Overcast,210,2007-01-26 13:35:00
8:55 AM,21.2,17.6,86,29.93,10.0,SSW,15.0,-,N/A,,Overcast,200,2007-01-26 13:55:00
9:15 AM,21.2,17.6,86,29.92,10.0,SSW,16.1,20.7,N/A,,Overcast,210,2007-01-26 14:15:00
9:36 AM,23.0,17.6,80,29.90,10.0,SSW,16.1,24.2,N/A,,Overcast,210,2007-01-26 14:36:00
9:55 AM,23.0,17.6,80,29.90,10.0,SSW,13.8,20.7,N/A,,Overcast,200,2007-01-26 14:55:00
10:15 AM,24.8,19.4,80,29.88,7.0,SSW,17.3,24.2,N/A,,Overcast,200,2007-01-26 15:15:00
10:35 AM,24.8,19.4,80,29.87,7.0,South,15.0,19.6,N/A,,Overcast,190,2007-01-26 15:35:00
10:55 AM,26.6,21.2,80,29.86,7.0,South,12.7,17.3,N/A,,Overcast,190,2007-01-26 15:55:00
11:18 AM,28.4,19.4,69,29.85,10.0,SSW,19.6,24.2,N/A,,Mostly Cloudy,200,2007-01-26 16:18:00
11:35 AM,28.4,21.2,74,29.83,10.0,SSW,13.8,21.9,N/A,,Scattered Clouds,210,2007-01-26 16:35:00
11:56 AM,30.2,21.2,69,29.82,10.0,SSW,16.1,29.9,N/A,,Clear,210,2007-01-26 16:56:00
12:15 PM,30.2,23.0,75,29.80,10.0,SSW,16.1,23.0,N/A,,Clear,200,2007-01-26 17:15:00
12:35 PM,32.0,23.0,69,29.78,10.0,SSW,17.3,27.6,N/A,,Clear,210,2007-01-26 17:35:00
12:55 PM,32.0,23.0,69,29.75,10.0,SSW,18.4,25.3,N/A,,Clear,210,2007-01-26 17:55:00
1:15 PM,33.8,24.8,70,29.75,10.0,SSW,16.1,23.0,N/A,,Clear,200,2007-01-26 18:15:00
1:35 PM,33.8,24.8,70,29.73,10.0,SSW,12.7,18.4,N/A,,Clear,210,2007-01-26 18:35:00
1:57 PM,33.8,24.8,70,29.72,10.0,SSW,16.1,21.9,N/A,,Clear,200,2007-01-26 18:57:00
2:15 PM,35.6,24.8,65,29.70,10.0,SSW,18.4,-,N/A,,Clear,200,2007-01-26 19:15:00
2:35 PM,35.6,26.6,70,29.68,10.0,SSW,19.6,25.3,N/A,,Clear,200,2007-01-26 19:35:00
2:55 PM,35.6,26.6,70,29.67,10.0,SSW,16.1,23.0,N/A,,Clear,200,2007-01-26 19:55:00
3:15 PM,37.4,26.6,65,29.67,10.0,SSW,12.7,23.0,N/A,,Clear,210,2007-01-26 20:15:00
3:37 PM,37.4,28.4,70,29.67,10.0,SSW,13.8,18.4,N/A,,Clear,200,2007-01-26 20:37:00
3:55 PM,37.4,28.4,70,29.65,10.0,SSW,19.6,23.0,N/A,,Clear,200,2007-01-26 20:55:00
4:15 PM,39.2,28.4,65,29.65,10.0,South,15.0,25.3,N/A,,Clear,190,2007-01-26 21:15:00
4:35 PM,37.4,28.4,70,29.64,10.0,SSW,13.8,18.4,N/A,,Clear,200,2007-01-26 21:35:00
4:55 PM,37.4,30.2,75,29.63,10.0,SSW,13.8,20.7,N/A,,Clear,200,2007-01-26 21:55:00
5:15 PM,39.2,30.2,70,29.62,10.0,SSW,11.5,-,N/A,,Clear,200,2007-01-26 22:15:00
5:35 PM,39.2,30.2,70,29.61,10.0,SW,11.5,20.7,N/A,,Clear,220,2007-01-26 22:35:00
5:57 PM,39.2,30.2,70,29.61,10.0,SSW,13.8,20.7,N/A,,Clear,210,2007-01-26 22:57:00
6:15 PM,39.2,30.2,70,29.61,10.0,SW,11.5,23.0,N/A,,Clear,220,2007-01-26 23:15:00
6:35 PM,39.2,30.2,70,29.60,10.0,SSW,11.5,20.7,N/A,,Clear,210,2007-01-26 23:35:00
6:55 PM,39.2,30.2,70,29.59,10.0,SSW,18.4,24.2,N/A,,Clear,210,2007-01-26 23:55:00
7:15 PM,39.2,30.2,70,29.59,10.0,SSW,19.6,25.3,N/A,,Clear,210,2007-01-27 00:15:00
7:35 PM,39.2,30.2,70,29.59,10.0,SW,16.1,27.6,N/A,,Clear,220,2007-01-27 00:35:00
7:55 PM,39.2,32.0,75,29.59,10.0,SW,15.0,25.3,N/A,,Clear,220,2007-01-27 00:55:00
8:15 PM,41.0,32.0,70,29.59,10.0,SW,12.7,24.2,N/A,,Clear,220,2007-01-27 01:15:00
8:35 PM,41.0,32.0,70,29.59,10.0,SW,11.5,23.0,N/A,,Clear,220,2007-01-27 01:35:00
8:55 PM,41.0,32.0,70,29.59,10.0,SW,13.8,19.6,N/A,,Clear,220,2007-01-27 01:55:00
9:15 PM,41.0,32.0,70,29.59,10.0,SW,11.5,23.0,N/A,,Clear,220,2007-01-27 02:15:00
9:35 PM,42.8,32.0,66,29.58,10.0,SW,13.8,23.0,N/A,,Clear,230,2007-01-27 02:35:00
9:55 PM,42.8,32.0,66,29.58,10.0,WSW,12.7,24.2,N/A,,Clear,240,2007-01-27 02:55:00
10:15 PM,42.8,32.0,66,29.57,10.0,SW,19.6,26.5,N/A,,Clear,230,2007-01-27 03:15:00
10:35 PM,42.8,32.0,66,29.57,10.0,SW,13.8,20.7,N/A,,Clear,230,2007-01-27 03:35:00
10:56 PM,41.0,32.0,70,29.57,10.0,SW,15.0,24.2,N/A,,Clear,230,2007-01-27 03:56:00
11:15 PM,41.0,32.0,70,29.57,10.0,SW,11.5,26.5,N/A,,Scattered Clouds,230,2007-01-27 04:15:00
11:35 PM,41.0,32.0,70,29.57,10.0,SW,12.7,18.4,N/A,,Scattered Clouds,230,2007-01-27 04:35:00
11:55 PM,41.0,32.0,70,29.57,10.0,SW,11.5,19.6,N/A,,Mostly Cloudy,230,2007-01-27 04:55:00